Location: Brede
(50.9167°N, 0.6000°E)
Time: 05:43:09
(UTC+00:00)

Explorer 11/Cluster Stage 4 - Visible Passes

Search period start: 27 November 2020 00:00
Search period end: 07 December 2020 00:00
Orbit: 467 x 1258 km, 28.8° (Epoch: 26 November)

Date Brightness Start Highest point End Pass type
(mag) Time Alt. Az. Time Alt. Az. Time Alt. Az.
05 Dec 9.6 20:08:24 10° SSW 20:08:39 10° SSW 20:08:39 10° SSW visible
06 Dec 9.5 18:11:23 10° S 18:12:26 10° SSE 18:13:29 10° SSE visible
06 Dec 9.5 19:56:49 10° SSW 19:58:24 12° SSW 19:58:24 12° SSW visible
